TimeEDT,TemperatureF,Dew PointF,Humidity,Sea Level PressureIn,VisibilityMPH,Wind Direction,Wind SpeedMPH,Gust SpeedMPH,PrecipitationIn,Events,Conditions,WindDirDegrees,DateUTC
12:53 AM,32.0,21.0,64,29.93,10.0,NW,11.5,-,N/A,,Overcast,320,2013-03-13 04:53:00
1:53 AM,30.9,24.1,76,29.93,1.8,WNW,13.8,20.7,0.00,Snow,Light Snow,290,2013-03-13 05:53:00
2:01 AM,30.2,24.8,80,29.91,1.0,WNW,9.2,20.7,0.00,Snow,Light Snow,290,2013-03-13 06:01:00
2:04 AM,30.2,24.8,80,29.91,2.0,WNW,10.4,18.4,0.00,Snow,Light Snow,300,2013-03-13 06:04:00
2:11 AM,30.2,24.8,80,29.91,9.0,NW,13.8,18.4,0.00,,Overcast,310,2013-03-13 06:11:00
2:27 AM,30.2,24.8,80,29.91,4.0,WNW,13.8,19.6,0.00,Snow,Light Snow,300,2013-03-13 06:27:00
2:33 AM,30.2,24.8,80,29.91,2.5,NW,18.4,24.2,0.00,Snow,Light Snow,320,2013-03-13 06:33:00
2:37 AM,30.2,23.0,75,29.92,1.2,NW,13.8,24.2,0.00,Snow,Light Snow,320,2013-03-13 06:37:00
2:48 AM,28.4,23.0,80,29.92,1.0,NW,10.4,-,0.00,Snow,Light Snow,320,2013-03-13 06:48:00
3:15 AM,28.4,23.0,80,29.93,2.0,NW,8.1,-,0.00,Snow,Light Snow,320,2013-03-13 07:15:00
3:27 AM,28.4,21.2,74,29.93,2.0,NNW,8.1,-,0.00,Snow,Light Snow,330,2013-03-13 07:27:00
3:41 AM,28.4,23.0,80,29.93,3.0,Variable,4.6,-,0.00,Snow,Light Snow,0,2013-03-13 07:41:00
3:45 AM,28.4,21.2,74,29.93,2.5,NNW,8.1,-,0.00,Snow,Light Snow,330,2013-03-13 07:45:00
4:01 AM,28.4,19.4,69,29.94,6.0,NNW,9.2,17.3,0.00,Snow,Light Snow,330,2013-03-13 08:01:00
4:31 AM,28.4,17.6,64,29.94,7.0,NW,10.4,-,0.00,Snow,Light Snow,320,2013-03-13 08:31:00
4:39 AM,28.4,17.6,64,29.94,10.0,NW,9.2,17.3,0.00,,Overcast,320,2013-03-13 08:39:00
4:48 AM,28.4,15.8,59,29.94,10.0,NW,11.5,18.4,0.00,,Overcast,320,2013-03-13 08:48:00
4:53 AM,28.0,16.0,61,29.97,10.0,NNW,15.0,19.6,0.00,,Overcast,330,2013-03-13 08:53:00
5:53 AM,27.0,18.0,69,29.99,9.0,NW,12.7,19.6,0.00,Snow,Light Snow,310,2013-03-13 09:53:00
6:04 AM,26.6,17.6,69,29.97,6.0,NW,9.2,19.6,0.00,Snow,Light Snow,310,2013-03-13 10:04:00
6:14 AM,26.6,15.8,64,29.97,7.0,NW,12.7,21.9,0.00,Snow,Light Snow,310,2013-03-13 10:14:00
6:46 AM,26.6,17.6,69,29.99,1.8,WNW,13.8,27.6,0.00,Snow,Light Snow,300,2013-03-13 10:46:00
6:53 AM,25.0,18.0,75,30.02,1.5,WNW,11.5,19.6,0.00,Snow,Light Snow,300,2013-03-13 10:53:00
6:59 AM,26.6,19.4,74,29.99,3.0,WNW,10.4,18.4,0.00,Snow,Light Snow,300,2013-03-13 10:59:00
7:18 AM,26.6,17.6,69,30.00,9.0,WNW,11.5,23.0,0.00,,Mostly Cloudy,300,2013-03-13 11:18:00
7:32 AM,26.6,19.4,74,30.00,1.8,NW,12.7,20.7,0.00,Snow,Light Snow,320,2013-03-13 11:32:00
7:37 AM,26.6,19.4,74,30.00,1.2,NW,13.8,20.7,0.00,Snow,Light Snow,320,2013-03-13 11:37:00
7:50 AM,26.6,19.4,74,30.01,2.0,NNW,10.4,21.9,0.00,Snow,Light Snow,330,2013-03-13 11:50:00
7:53 AM,26.1,19.9,78,30.04,3.0,NW,8.1,21.9,0.00,Snow,Light Snow,310,2013-03-13 11:53:00
8:14 AM,26.6,17.6,69,30.01,5.0,WNW,13.8,21.9,0.00,Snow,Light Snow,300,2013-03-13 12:14:00
8:25 AM,26.6,19.4,74,30.02,2.5,WNW,13.8,18.4,0.00,Snow,Light Snow,300,2013-03-13 12:25:00
8:28 AM,26.6,19.4,74,30.02,3.0,WNW,11.5,18.4,0.00,Snow,Light Snow,300,2013-03-13 12:28:00
8:53 AM,28.0,17.1,63,30.06,9.0,WNW,13.8,27.6,0.00,,Overcast,300,2013-03-13 12:53:00
9:53 AM,27.0,18.0,69,30.08,6.0,WNW,16.1,23.0,0.00,Snow,Light Snow,300,2013-03-13 13:53:00
10:53 AM,28.0,17.1,63,30.11,4.0,NW,16.1,24.2,0.00,Snow,Light Snow,320,2013-03-13 14:53:00
11:53 AM,28.9,17.1,61,30.13,7.0,NW,15.0,26.5,0.00,Snow,Light Snow,320,2013-03-13 15:53:00
12:53 PM,28.9,18.0,64,30.15,2.5,NW,13.8,26.5,0.00,Snow,Light Snow,310,2013-03-13 16:53:00
1:16 PM,28.4,19.4,69,30.14,5.0,WNW,15.0,23.0,0.00,Snow,Light Snow,300,2013-03-13 17:16:00
1:26 PM,28.4,19.4,69,30.14,7.0,WNW,17.3,26.5,0.00,Snow,Light Snow,300,2013-03-13 17:26:00
1:37 PM,28.4,19.4,69,30.14,2.5,WNW,17.3,28.8,0.00,Snow,Light Snow,300,2013-03-13 17:37:00
1:42 PM,30.2,19.4,64,30.14,4.0,NW,12.7,28.8,0.00,Snow,Light Snow,310,2013-03-13 17:42:00
1:53 PM,30.0,18.0,61,30.17,6.0,NW,17.3,26.5,0.00,Snow,Light Snow,310,2013-03-13 17:53:00
2:00 PM,30.2,17.6,60,30.15,7.0,NW,17.3,28.8,0.00,Snow,Light Snow,310,2013-03-13 18:00:00
2:23 PM,30.2,15.8,55,30.16,9.0,NW,20.7,29.9,0.00,,Overcast,310,2013-03-13 18:23:00
2:32 PM,30.2,17.6,60,30.16,8.0,NNW,18.4,32.2,0.00,Snow,Light Snow,330,2013-03-13 18:32:00
2:53 PM,30.0,16.0,56,30.19,10.0,NW,17.3,25.3,0.00,,Overcast,320,2013-03-13 18:53:00
3:53 PM,30.9,16.0,54,30.21,10.0,WNW,20.7,28.8,N/A,,Overcast,300,2013-03-13 19:53:00
4:53 PM,30.9,15.1,52,30.23,10.0,NW,15.0,26.5,N/A,,Partly Cloudy,310,2013-03-13 20:53:00
5:53 PM,32.0,15.1,50,30.25,10.0,NW,12.7,24.2,N/A,,Partly Cloudy,310,2013-03-13 21:53:00
6:53 PM,32.0,14.0,48,30.26,10.0,WNW,12.7,25.3,N/A,,Partly Cloudy,300,2013-03-13 22:53:00
7:53 PM,30.9,12.9,47,30.27,10.0,WNW,11.5,21.9,N/A,,Clear,300,2013-03-13 23:53:00
8:53 PM,30.9,12.9,47,30.28,10.0,WNW,5.8,-,N/A,,Clear,300,2013-03-14 00:53:00
9:53 PM,30.9,12.9,47,30.28,10.0,WNW,8.1,-,N/A,,Clear,300,2013-03-14 01:53:00
10:53 PM,32.0,15.1,50,30.28,10.0,WNW,5.8,-,N/A,,Clear,290,2013-03-14 02:53:00
11:53 PM,32.0,15.1,50,30.28,10.0,West,5.8,-,N/A,,Clear,280,2013-03-14 03:53:00